• In Hungary
  • List of Countries
  • For 7 days
  • Water Temperature
  • Satellite Maps
  • Weather Map
  • News
  • Weather Widgets
  • user-avatar
    Login

    Hourly Weather Konce

    Today, 25 November, Saturday

    Time Temperature Precipitation Wind Pressure Humidity
    00:00 +6°C° 0 mm 1 mps 699 mmHg 72%
    01:00 +5°C° 0 mm 1 mps 699 mmHg 73%
    02:00 +5°C° 0 mm 1 mps 699 mmHg 74%
    03:00 +5°C° 0 mm 1 mps 699 mmHg 75%
    04:00 +5°C° 0 mm 1 mps 699 mmHg 76%
    05:00 +5°C° 0 mm 1 mps 699 mmHg 76%
    06:00 +4°C° 0 mm 1 mps 699 mmHg 76%
    07:00 +4°C° 0 mm 1 mps 699 mmHg 76%
    08:00 +6°C° 0 mm 1 mps 699 mmHg 70%
    09:00 +8°C° 0 mm 1 mps 699 mmHg 63%
    10:00 +10°C° 0 mm 1 mps 699 mmHg 57%
    11:00 +10°C° 0 mm 2 mps 699 mmHg 55%
    12:00 +12°C° 0 mm 2 mps 698 mmHg 54%
    13:00 +12°C° 0 mm 2 mps 698 mmHg 52%
    14:00 +10°C° 0 mm 2 mps 698 mmHg 58%
    15:00 +9°C° 0 mm 2 mps 697 mmHg 64%
    16:00 +8°C° 0 mm 2 mps 697 mmHg 70%
    17:00 +7°C° 0 mm 2 mps 697 mmHg 74%
    18:00 +7°C° 0 mm 1 mps 697 mmHg 79%
    19:00 +7°C° 0 mm 1 mps 697 mmHg 83%
    20:00 +6°C° 0 mm 1 mps 697 mmHg 84%
    21:00 +6°C° 0 mm 1 mps 697 mmHg 86%
    22:00 +6°C° 0 mm 1 mps 697 mmHg 87%
    23:00 +6°C° 0 mm 1 mps 697 mmHg 88%

    Tomorrow, 26 November, Sunday

    Time Temperature Precipitation Wind Pressure Humidity
    00:00 +5°C° 0 mm 1 mps 697 mmHg 88%
    01:00 +5°C° 0 mm 1 mps 697 mmHg 89%
    02:00 +5°C° 0 mm 1 mps 697 mmHg 89%
    03:00 +5°C° 0 mm 1 mps 697 mmHg 89%
    04:00 +5°C° 0 mm 1 mps 696 mmHg 89%
    05:00 +5°C° 0 mm 1 mps 696 mmHg 89%
    06:00 +5°C° 0 mm 1 mps 696 mmHg 88%
    07:00 +5°C° 0 mm 1 mps 696 mmHg 88%
    08:00 +7°C° 0 mm 1 mps 696 mmHg 81%
    09:00 +7°C° 0 mm 2 mps 697 mmHg 74%
    10:00 +9°C° 0 mm 2 mps 697 mmHg 67%
    11:00 +10°C° 0 mm 2 mps 696 mmHg 64%
    12:00 +10°C° 0 mm 2 mps 696 mmHg 60%
    13:00 +12°C° 0 mm 2 mps 695 mmHg 56%
    14:00 +10°C° 0 mm 2 mps 695 mmHg 61%
    15:00 +9°C° 0 mm 2 mps 694 mmHg 66%
    16:00 +8°C° 0 mm 2 mps 694 mmHg 71%
    17:00 +8°C° 0 mm 2 mps 694 mmHg 75%
    18:00 +7°C° 0 mm 2 mps 694 mmHg 78%
    19:00 +6°C° 0 mm 2 mps 694 mmHg 81%
    20:00 +6°C° 0 mm 2 mps 694 mmHg 82%
    21:00 +6°C° 0 mm 2 mps 694 mmHg 84%
    22:00 +6°C° 0 mm 2 mps 694 mmHg 85%
    23:00 +6°C° 0.2 mm 2 mps 694 mmHg 86%

    Day after tomorrow, 27 November, Monday

    Time Temperature Precipitation Wind Pressure Humidity
    00:00 +7°C° 0.2 mm 1 mps 693 mmHg 86%
    01:00 +7°C° 0.2 mm 1 mps 693 mmHg 87%
    02:00 +7°C° 0.2 mm 1 mps 693 mmHg 88%
    03:00 +6°C° 0.2 mm 1 mps 693 mmHg 89%
    04:00 +6°C° 0.2 mm 1 mps 692 mmHg 90%
    05:00 +6°C° 0.4 mm 1 mps 693 mmHg 89%
    06:00 +5°C° 0.4 mm 2 mps 693 mmHg 89%
    07:00 +5°C° 0.4 mm 2 mps 693 mmHg 88%
    08:00 +4°C° 0.8 mm 3 mps 693 mmHg 84%
    09:00 +5°C° 0.8 mm 4 mps 693 mmHg 80%
    10:00 +5°C° 0.8 mm 4 mps 693 mmHg 77%
    11:00 +3°C° 1.4 mm 5 mps 693 mmHg 76%
    12:00 +3°C° 1.4 mm 5 mps 692 mmHg 76%
    13:00 +2°C° 1.4 mm 6 mps 692 mmHg 75%
    14:00 +2°C° 1.1 mm 6 mps 692 mmHg 76%
    15:00 +1°C° 1.1 mm 6 mps 692 mmHg 77%
    16:00 +1°C° 1.1 mm 6 mps 692 mmHg 77%
    17:00 -1°C° 0.8 mm 6 mps 692 mmHg 79%
    18:00 -1°C° 0.8 mm 6 mps 692 mmHg 80%
    19:00 -1°C° 0.8 mm 5 mps 692 mmHg 81%
    20:00 -1°C° 0.8 mm 5 mps 693 mmHg 83%
    21:00 -2°C° 0.8 mm 5 mps 693 mmHg 84%
    22:00 -2°C° 0.8 mm 5 mps 693 mmHg 85%
    23:00 -2°C° 0.7 mm 5 mps 693 mmHg 87%

    28 November, Tuesday

    Time Temperature Precipitation Wind Pressure Humidity
    00:00 -4°C° 0.7 mm 5 mps 692 mmHg 88%
    01:00 -4°C° 0.7 mm 5 mps 692 mmHg 89%
    02:00 -3°C° 0.6 mm 4 mps 692 mmHg 89%
    03:00 -3°C° 0.6 mm 4 mps 692 mmHg 89%
    04:00 -3°C° 0.6 mm 4 mps 692 mmHg 90%
    05:00 -3°C° 0.4 mm 4 mps 692 mmHg 89%
    06:00 -3°C° 0.4 mm 4 mps 693 mmHg 89%
    07:00 -3°C° 0.4 mm 4 mps 693 mmHg 89%
    08:00 -3°C° 0.2 mm 4 mps 693 mmHg 88%
    09:00 -3°C° 0.2 mm 4 mps 693 mmHg 88%
    10:00 -2°C° 0.2 mm 4 mps 693 mmHg 87%
    11:00 -2°C° 0.1 mm 4 mps 693 mmHg 87%
    12:00 -2°C° 0.1 mm 4 mps 693 mmHg 87%
    13:00 -1°C° 0.1 mm 4 mps 693 mmHg 87%
    14:00 -1°C° 0.1 mm 3 mps 693 mmHg 87%
    15:00 -1°C° 0.1 mm 3 mps 693 mmHg 87%
    16:00 -1°C° 0.1 mm 3 mps 693 mmHg 87%
    17:00 -2°C° 0 mm 2 mps 693 mmHg 87%
    18:00 -3°C° 0 mm 2 mps 693 mmHg 87%
    19:00 -3°C° 0 mm 2 mps 693 mmHg 87%
    20:00 -3°C° 0 mm 2 mps 693 mmHg 86%
    21:00 -4°C° 0 mm 2 mps 693 mmHg 86%
    22:00 -4°C° 0 mm 2 mps 693 mmHg 86%
    23:00 -4°C° 0 mm 2 mps 693 mmHg 85%

    29 November, Wednesday

    Time Temperature Precipitation Wind Pressure Humidity
    00:00 -4°C° 0 mm 2 mps 693 mmHg 84%
    01:00 -5°C° 0 mm 2 mps 693 mmHg 84%
    02:00 -4°C° 0 mm 2 mps 693 mmHg 83%
    03:00 -4°C° 0 mm 2 mps 693 mmHg 82%
    04:00 -2°C° 0 mm 1 mps 693 mmHg 81%
    05:00 -2°C° 0 mm 1 mps 693 mmHg 81%
    06:00 -2°C° 0 mm 1 mps 694 mmHg 80%
    07:00 -2°C° 0 mm 1 mps 694 mmHg 79%
    08:00 0°C° 0 mm 1 mps 694 mmHg 80%
    09:00 +1°C° 0 mm 1 mps 694 mmHg 81%
    10:00 +3°C° 0 mm 1 mps 695 mmHg 82%
    11:00 +4°C° 0 mm 1 mps 694 mmHg 81%
    12:00 +4°C° 0 mm 1 mps 694 mmHg 80%
    13:00 +5°C° 0 mm 1 mps 694 mmHg 79%
    14:00 +4°C° 0 mm 1 mps 694 mmHg 79%
    15:00 +3°C° 0 mm 1 mps 694 mmHg 79%
    16:00 +2°C° 0 mm 1 mps 694 mmHg 78%
    17:00 +1°C° 0 mm 1 mps 694 mmHg 78%
    18:00 +1°C° 0 mm 1 mps 694 mmHg 78%
    19:00 +1°C° 0 mm 1 mps 695 mmHg 78%
    20:00 0°C° 0 mm 1 mps 695 mmHg 78%
    21:00 0°C° 0 mm 1 mps 695 mmHg 79%
    22:00 0°C° 0 mm 1 mps 695 mmHg 79%
    23:00 0°C° 0 mm 1 mps 695 mmHg 79%

    30 November, Thursday

    Time Temperature Precipitation Wind Pressure Humidity
    00:00 -2°C° 0 mm 2 mps 695 mmHg 80%
    01:00 -2°C° 0 mm 2 mps 694 mmHg 80%
    02:00 -2°C° 0 mm 2 mps 694 mmHg 80%
    03:00 -2°C° 0 mm 2 mps 694 mmHg 80%
    04:00 -2°C° 0 mm 2 mps 693 mmHg 80%
    05:00 -2°C° 0 mm 2 mps 693 mmHg 81%
    06:00 -1°C° 0 mm 2 mps 693 mmHg 81%
    07:00 -1°C° 0 mm 2 mps 693 mmHg 82%
    08:00 +1°C° 0 mm 3 mps 693 mmHg 82%
    09:00 +2°C° 0 mm 3 mps 693 mmHg 83%
    10:00 +3°C° 0 mm 4 mps 693 mmHg 83%
    11:00 +4°C° 0 mm 4 mps 692 mmHg 83%
    12:00 +4°C° 0 mm 4 mps 692 mmHg 82%
    13:00 +5°C° 0 mm 4 mps 691 mmHg 82%
    14:00 +5°C° 0 mm 4 mps 691 mmHg 85%
    15:00 +4°C° 0 mm 4 mps 691 mmHg 88%
    16:00 +3°C° 0 mm 3 mps 690 mmHg 91%
    17:00 +3°C° 0 mm 3 mps 690 mmHg 92%
    18:00 +3°C° 0 mm 3 mps 690 mmHg 93%
    19:00 +3°C° 0 mm 3 mps 690 mmHg 93%
    20:00 +3°C° 0.1 mm 3 mps 690 mmHg 93%
    21:00 +4°C° 0.1 mm 3 mps 690 mmHg 94%
    22:00 +4°C° 0.1 mm 3 mps 690 mmHg 94%
    23:00 +4°C° 0.4 mm 3 mps 689 mmHg 94%
    Show more